{"data":{"norad_id":61049,"epoch":"2026-09-22T10:31:34.281408Z","epoch_age_seconds":124086,"freshness":"FRESH","line1":"1 61049U 24163E   26265.43859122  .00011208  00000+0  52066-3 0  9994","line2":"2 61049  52.9752 221.8070 0009465  75.0583 285.1458 15.20450929112569","mean_motion":15.20450929,"eccentricity":0.0009465,"inclination_deg":52.9752,"raan_deg":221.807,"arg_perigee_deg":75.0583,"mean_anomaly_deg":285.1458,"bstar":0.00052066,"rev_number":11256,"period_min":94.70874544745,"perigee_km":497.96506904356,"apogee_km":510.9938620128,"semimajor_km":6882.6164655282,"source":"CELESTRAK","updated_at":"2026-09-23T09:00:20.802795Z"}}